Change the Weather History Date:

Friday, March 8, 2013

  Actual Average Record
Temperature  
Mean Temperature 43 °F 39 °F  
Max Temperature 53 °F 52 °F 62 °F (2004)
Min Temperature 33 °F 26 °F 10 °F (1998)
Degree Days  
Heating Degree Days 22 26  
Month to date heating degree days 188 217  
Since 1 July heating degree days 4872 4932  
Cooling Degree Days 0 0  
Month to date cooling degree days 0 0  
Year to date cooling degree days 0 0  
Moisture  
Dew Point 28 °F    
Average Humidity 63    
Maximum Humidity 100    
Minimum Humidity 26    
Precipitation  
Precipitation 0.16 in 0.03 in 0.38 in (2002)
Month to date precipitation 0.29 0.27  
Year to date precipitation 1.10 1.50  
Sea Level Pressure  
Sea Level Pressure 29.74 in    
Wind  
Wind Speed 8 mph (SE)    
Max Wind Speed 23 mph    
Max Gust Speed 28 mph    
Visibility 9 miles    
Events Rain , Snow    
T = Trace of Precipitation, MM = Missing Value Source: NWS Daily Summary

Daily Weather History Graph

Daily Weather History Graph

Search for Another Location

Airport or City:

Trip Planner

Search our weather history database for the weather conditions in past years. The results will help you decide how hot, cold, wet, or windy it might be!

Date:

Astronomy

Mar. 08, 2013 Rise Set
Actual Time 6:32 AM MST 6:12 PM MST
Civil Twilight 6:06 AM MST 6:38 PM MST
Nautical Twilight 5:35 AM MST 7:09 PM MST
Astronomical Twilight 5:05 AM MST 7:40 PM MST
Moon 4:17 AM MST (3/8) 3:12 PM MST (3/8)
Length of Visible Light 12h 32m
Length of Day
11h 39m
Waning Crescent, 11% of the Moon is Illuminated
Mar 8
Waning Crescent
Mar 11
New
Mar 19
First Quarter
Mar 27
Full
Apr 2
Last Quarter

Hourly Weather History & Observations

Time (MST) Temp. Windchill Dew Point Humidity Pressure Visibility Wind Dir Wind Speed Gust Speed Precip Events Conditions
12:53 AM 39.0 °F 35.7 °F 21.9 °F 50% 29.83 in 10.0 mi South 4.6 mph - N/A   Clear
1:53 AM 42.1 °F 35.7 °F 19.9 °F 41% 29.82 in 10.0 mi East 11.5 mph - N/A   Clear
2:53 AM 41.0 °F 35.2 °F 19.0 °F 41% 29.81 in 10.0 mi ESE 9.2 mph - N/A   Clear
3:53 AM 39.0 °F 34.0 °F 19.9 °F 46% 29.80 in 10.0 mi ESE 6.9 mph - N/A   Clear
4:53 AM 36.0 °F 30.3 °F 21.9 °F 57% 29.82 in 10.0 mi SE 6.9 mph - N/A   Clear
5:53 AM 36.0 °F 30.3 °F 21.9 °F 57% 29.83 in 10.0 mi SE 6.9 mph - N/A   Mostly Cloudy
6:53 AM 37.0 °F 31.6 °F 23.0 °F 57% 29.84 in 10.0 mi South 6.9 mph - N/A   Overcast
7:53 AM 41.0 °F 36.4 °F 21.9 °F 47% 29.82 in 10.0 mi ESE 6.9 mph - N/A   Partly Cloudy
8:53 AM 48.9 °F - 19.0 °F 31% 29.78 in 10.0 mi ESE 5.8 mph - N/A   Clear
9:53 AM 51.1 °F - 17.1 °F 26% 29.74 in 10.0 mi ENE 8.1 mph - N/A   Clear
10:53 AM 52.0 °F - 19.9 °F 28% 29.74 in 10.0 mi NW 11.5 mph - N/A   Overcast
11:53 AM 52.0 °F - 24.1 °F 34% 29.72 in 10.0 mi SSW 8.1 mph - N/A   Scattered Clouds
12:53 PM 52.0 °F - 19.9 °F 28% 29.68 in 10.0 mi Calm Calm - N/A   Mostly Cloudy
1:53 PM 52.0 °F - 21.0 °F 30% 29.65 in 10.0 mi SW 9.2 mph - N/A   Overcast
2:53 PM 46.0 °F 40.2 °F 33.1 °F 61% 29.68 in 10.0 mi WSW 12.7 mph - N/A   Overcast
3:53 PM 46.9 °F - 32.0 °F 56% 29.66 in 10.0 mi North 9.2 mph - N/A   Overcast
4:53 PM 45.0 °F 38.5 °F 34.0 °F 65% 29.66 in 10.0 mi NNW 13.8 mph - N/A   Overcast
5:53 PM 42.1 °F 34.5 °F 35.1 °F 76% 29.69 in 10.0 mi WNW 15.0 mph - N/A   Overcast
6:14 PM 39.2 °F 32.0 °F 37.4 °F 93% 29.77 in 4.0 mi West 11.5 mph - 0.05 in Rain Heavy Rain
6:29 PM 35.6 °F 27.5 °F 33.8 °F 93% 29.79 in 5.0 mi SSW 11.5 mph - 0.11 in Snow Light Snow
6:34 PM 33.8 °F 30.8 °F 33.8 °F 100% 29.78 in 2.5 mi Variable 3.5 mph - 0.15 in Snow Light Snow
6:40 PM 35.6 °F 29.9 °F 33.8 °F 93% 29.78 in 3.0 mi East 6.9 mph - 0.15 in Rain Light Rain
6:53 PM 35.1 °F 28.6 °F 34.0 °F 96% 29.73 in 10.0 mi ENE 8.1 mph - 0.16 in Rain Light Rain
7:01 PM 35.6 °F 28.6 °F 33.8 °F 93% 29.76 in 10.0 mi East 9.2 mph - 0.00 in   Overcast
7:53 PM 37.9 °F 30.0 °F 34.0 °F 86% 29.66 in 10.0 mi East 12.7 mph - 0.00 in   Overcast
8:53 PM 36.0 °F 33.3 °F 34.0 °F 93% 29.65 in 10.0 mi WSW 3.5 mph - N/A   Clear
9:53 PM 35.1 °F 32.2 °F 34.0 °F 96% 29.65 in 10.0 mi North 3.5 mph - N/A   Clear
10:53 PM 34.0 °F 29.8 °F 33.1 °F 96% 29.64 in 10.0 mi SSE 4.6 mph - N/A   Clear
11:53 PM 33.1 °F 28.7 °F 32.0 °F 96% 29.64 in 10.0 mi SE 4.6 mph - N/A   Mostly Cloudy